This is the latest recevied weather packets stored in our database for station/object W4SNA-2. If no packets are shown the sender has not sent any weather packets the latest 1 day(s).
| Time | Temp. | Humidity | Pressure | Rain* | Wind** | Luminosity | Snow |
|---|---|---|---|---|---|---|---|
| 1778033720 | 18.89° C | 55% | 1015.4 hPa | 0 mm | 2.68 m/s, 198° | - | - |
| 1778033420 | 18.89° C | 55% | 1015.5 hPa | 0 mm | 2.68 m/s, 192° | - | - |
| 1778033120 | 18.89° C | 55% | 1015.5 hPa | 0 mm | 2.24 m/s, 200° | - | - |
| 1778032820 | 18.89° C | 54% | 1015.5 hPa | 0 mm | 2.68 m/s, 194° | - | - |
| 1778032520 | 18.89° C | 54% | 1015.4 hPa | 0 mm | 2.68 m/s, 194° | - | - |
| 1778032220 | 18.89° C | 53% | 1015.4 hPa | 0 mm | 2.68 m/s, 195° | - | - |
| 1778031921 | 18.89° C | 54% | 1015.5 hPa | 0 mm | 2.68 m/s, 195° | - | - |
| 1778031620 | 18.89° C | 54% | 1015.5 hPa | 0 mm | 3.13 m/s, 198° | - | - |
| 1778031321 | 18.89° C | 54% | 1015.5 hPa | 0 mm | 1.79 m/s, 200° | - | - |
| 1778031020 | 18.89° C | 54% | 1015.5 hPa | 0 mm | 1.79 m/s, 196° | - | - |
| 1778030721 | 18.89° C | 53% | 1015.6 hPa | 0 mm | 1.79 m/s, 197° | - | - |
| 1778030420 | 19.44° C | 53% | 1015.5 hPa | 0 mm | 2.24 m/s, 204° | - | - |
| 1778030128 | 19.44° C | 53% | 1015.5 hPa | 0 mm | 1.79 m/s, 198° | - | - |
| 1778029820 | 18.89° C | 53% | 1015.5 hPa | 0 mm | 1.79 m/s, 200° | - | - |
| 1778029521 | 18.89° C | 53% | 1015.4 hPa | 0 mm | 2.24 m/s, 194° | - | - |
| 1778029220 | 18.89° C | 53% | 1015.3 hPa | 0 mm | 2.24 m/s, 197° | - | - |
| 1778028921 | 18.89° C | 53% | 1015.2 hPa | 0 mm | 2.68 m/s, 199° | - | - |
| 1778028620 | 18.89° C | 53% | 1015.2 hPa | 0 mm | 1.79 m/s, 206° | - | - |
| 1778028321 | 19.44° C | 53% | 1015.1 hPa | 0 mm | 2.24 m/s, 195° | - | - |
| 1778028020 | 19.44° C | 52% | 1015.2 hPa | 0 mm | 2.24 m/s, 195° | - | - |
| 1778027721 | 19.44° C | 52% | 1015.1 hPa | 0 mm | 2.24 m/s, 196° | - | - |
| 1778027420 | 19.44° C | 52% | 1015.2 hPa | 0 mm | 1.79 m/s, 203° | - | - |
| 1778027122 | 19.44° C | 52% | 1015.2 hPa | 0 mm | 2.24 m/s, 198° | - | - |
| 1778026820 | 19.44° C | 51% | 1015.1 hPa | 0 mm | 1.79 m/s, 197° | - | - |
| 1778026521 | 19.44° C | 51% | 1015.1 hPa | 0 mm | 1.79 m/s, 194° | - | - |
* Rain latest hour (hover to see other rain measurements)
** Current wind speed in m/s (hover to see current wind gust speed)